Time,TemperatureF,DewpointF,PressureIn,WindDirection,WindDirectionDegrees,WindSpeedMPH,WindSpeedGustMPH,Humidity,HourlyPrecipIn,Conditions,Clouds,dailyrainin,SoftwareType,DateUTC
2013-01-11 00:03:00,45.0,29.0,30.54,ENE,76,0.0,2.0,54,0.00,,,0.00,,2013-01-11 00:03:00,
2013-01-11 00:13:00,44.0,29.0,30.54,ENE,77,0.0,1.0,56,0.00,,,0.00,,2013-01-11 00:13:00,
2013-01-11 00:23:00,44.0,29.0,30.54,ENE,77,0.0,1.0,56,0.00,,,0.00,,2013-01-11 00:23:00,
2013-01-11 00:33:00,44.0,29.0,30.55,ENE,77,0.0,0.0,56,0.00,,,0.00,,2013-01-11 00:33:00,
2013-01-11 00:43:00,44.0,29.0,30.55,ENE,77,0.0,0.0,56,0.00,,,0.00,,2013-01-11 00:43:00,
2013-01-11 00:52:00,44.0,28.0,30.54,ENE,77,0.0,1.0,54,0.00,,,0.00,,2013-01-11 00:52:00,
2013-01-11 01:03:00,43.0,30.0,30.54,ENE,76,0.0,1.0,61,0.00,,,0.00,,2013-01-11 01:03:00,
2013-01-11 01:13:00,42.0,30.0,30.53,ENE,76,0.0,0.0,62,0.00,,,0.00,,2013-01-11 01:13:00,
2013-01-11 01:23:00,42.0,30.0,30.53,ENE,76,0.0,0.0,62,0.00,,,0.00,,2013-01-11 01:23:00,
2013-01-11 01:34:00,41.0,29.0,30.54,ENE,77,0.0,0.0,61,0.00,,,0.00,,2013-01-11 01:34:00,
2013-01-11 01:43:00,41.0,29.0,30.54,ENE,77,0.0,0.0,61,0.00,,,0.00,,2013-01-11 01:43:00,
2013-01-11 01:53:00,41.0,29.0,30.54,ENE,77,0.0,0.0,61,0.00,,,0.00,,2013-01-11 01:53:00,
2013-01-11 02:03:00,41.0,29.0,30.53,ENE,77,0.0,0.0,62,0.00,,,0.00,,2013-01-11 02:03:00,
2013-01-11 02:13:00,40.0,28.0,30.53,ENE,76,0.0,1.0,63,0.00,,,0.00,,2013-01-11 02:13:00,
2013-01-11 02:23:00,40.0,28.0,30.53,ENE,76,0.0,1.0,63,0.00,,,0.00,,2013-01-11 02:23:00,
2013-01-11 02:33:00,39.0,29.0,30.53,ENE,77,0.0,1.0,66,0.00,,,0.00,,2013-01-11 02:33:00,
2013-01-11 02:43:00,39.0,29.0,30.53,ENE,77,0.0,1.0,66,0.00,,,0.00,,2013-01-11 02:43:00,
2013-01-11 02:53:00,39.0,30.0,30.53,ENE,77,0.0,1.0,71,0.00,,,0.00,,2013-01-11 02:53:00,
2013-01-11 03:03:00,38.0,30.0,30.54,ENE,77,0.0,1.0,73,0.00,,,0.00,,2013-01-11 03:03:00,
2013-01-11 03:13:00,38.0,30.0,30.54,ENE,77,0.0,1.0,73,0.00,,,0.00,,2013-01-11 03:13:00,
2013-01-11 03:23:00,38.0,30.0,30.54,ENE,77,0.0,1.0,73,0.00,,,0.00,,2013-01-11 03:23:00,
2013-01-11 03:33:00,38.0,30.0,30.53,ENE,76,1.0,1.0,72,0.00,,,0.00,,2013-01-11 03:33:00,
2013-01-11 03:43:00,38.0,30.0,30.53,ENE,76,1.0,1.0,72,0.00,,,0.00,,2013-01-11 03:43:00,
2013-01-11 03:53:00,37.0,30.0,30.53,ENE,76,0.0,1.0,75,0.00,,,0.00,,2013-01-11 03:53:00,
2013-01-11 04:02:00,37.0,30.0,30.53,East,91,0.0,1.0,76,0.00,,,0.00,,2013-01-11 04:02:00,
2013-01-11 04:12:00,37.0,30.0,30.52,East,91,0.0,-999.0,76,-99.99,,,-99.99,,2013-01-11 04:12:00,
2013-01-11 04:22:00,37.0,30.0,30.52,East,91,0.0,-999.0,76,-99.99,,,-99.99,,2013-01-11 04:22:00,
2013-01-11 04:33:00,37.0,30.0,30.52,East,91,0.0,0.0,75,0.00,,,0.00,,2013-01-11 04:33:00,
2013-01-11 04:43:00,37.0,30.0,30.52,East,91,0.0,0.0,75,0.00,,,0.00,,2013-01-11 04:43:00,
2013-01-11 04:52:00,37.0,29.0,30.53,East,92,0.0,0.0,73,0.00,,,0.00,,2013-01-11 04:52:00,
2013-01-11 05:04:00,37.0,29.0,30.53,East,92,0.0,0.0,74,0.00,,,0.00,,2013-01-11 05:04:00,
2013-01-11 05:13:00,37.0,29.0,30.53,East,92,0.0,0.0,74,0.00,,,0.00,,2013-01-11 05:13:00,
2013-01-11 05:22:00,37.0,29.0,30.52,East,92,0.0,1.0,73,0.00,,,0.00,,2013-01-11 05:22:00,
2013-01-11 05:33:00,37.0,30.0,30.52,East,90,0.0,1.0,76,0.00,,,0.00,,2013-01-11 05:33:00,
2013-01-11 05:43:00,37.0,30.0,30.52,East,90,0.0,1.0,76,0.00,,,0.00,,2013-01-11 05:43:00,
2013-01-11 05:52:00,36.0,29.0,30.52,East,91,0.0,0.0,76,0.00,,,0.00,,2013-01-11 05:52:00,
2013-01-11 06:03:00,37.0,29.0,30.52,West,280,0.0,1.0,73,0.00,,,0.00,,2013-01-11 06:03:00,
2013-01-11 06:12:00,37.0,29.0,30.52,West,280,0.0,1.0,73,0.00,,,0.00,,2013-01-11 06:12:00,
2013-01-11 06:22:00,36.0,29.0,30.51,West,280,0.0,0.0,74,0.00,,,0.00,,2013-01-11 06:22:00,
2013-01-11 06:32:00,36.0,29.0,30.51,West,280,0.0,0.0,75,0.00,,,0.00,,2013-01-11 06:32:00,
2013-01-11 06:42:00,36.0,29.0,30.51,West,280,0.0,0.0,75,0.00,,,0.00,,2013-01-11 06:42:00,
2013-01-11 06:52:00,35.0,29.0,30.51,West,279,0.0,1.0,77,0.00,,,0.00,,2013-01-11 06:52:00,
2013-01-11 07:02:00,36.0,29.0,30.52,West,280,0.0,1.0,74,0.00,,,0.00,,2013-01-11 07:02:00,
2013-01-11 07:12:00,35.0,28.0,30.51,West,280,0.0,0.0,75,0.00,,,0.00,,2013-01-11 07:12:00,
2013-01-11 07:22:00,35.0,28.0,30.51,West,280,0.0,0.0,75,0.00,,,0.00,,2013-01-11 07:22:00,
2013-01-11 07:32:00,34.0,28.0,30.50,West,280,0.0,0.0,78,0.00,,,0.00,,2013-01-11 07:32:00,
2013-01-11 07:42:00,34.0,28.0,30.50,West,280,0.0,0.0,78,0.00,,,0.00,,2013-01-11 07:42:00,
2013-01-11 07:52:00,34.0,28.0,30.50,West,280,0.0,0.0,78,0.00,,,0.00,,2013-01-11 07:52:00,
2013-01-11 08:02:00,34.0,28.0,30.50,West,280,0.0,0.0,79,0.00,,,0.00,,2013-01-11 08:02:00,
2013-01-11 08:12:00,34.0,28.0,30.50,West,280,0.0,0.0,79,0.00,,,0.00,,2013-01-11 08:12:00,
2013-01-11 08:22:00,34.0,28.0,30.50,West,280,0.0,0.0,79,0.00,,,0.00,,2013-01-11 08:22:00,
2013-01-11 08:32:00,34.0,28.0,30.50,West,280,0.0,1.0,79,0.00,,,0.00,,2013-01-11 08:32:00,
2013-01-11 08:42:00,34.0,28.0,30.50,West,280,0.0,1.0,79,0.00,,,0.00,,2013-01-11 08:42:00,
2013-01-11 14:03:00,37.0,31.0,30.41,WNW,287,0.0,2.0,80,0.00,,,0.00,,2013-01-11 14:03:00,
2013-01-11 14:12:00,37.0,31.0,30.41,WSW,242,0.0,3.0,79,0.00,,,0.00,,2013-01-11 14:12:00,
2013-01-11 14:23:00,37.0,31.0,30.41,WSW,242,0.0,3.0,79,0.00,,,0.00,,2013-01-11 14:23:00,
2013-01-11 14:33:00,38.0,32.0,30.40,SSE,163,0.0,2.0,80,0.00,,,0.00,,2013-01-11 14:33:00,
2013-01-11 14:43:00,39.0,33.0,30.39,South,184,1.0,4.0,78,0.00,,,0.00,,2013-01-11 14:43:00,
2013-01-11 14:53:00,39.0,33.0,30.39,South,184,1.0,4.0,78,0.00,,,0.00,,2013-01-11 14:53:00,
2013-01-11 15:03:00,40.0,32.0,30.38,SE,145,3.0,8.0,74,0.00,,,0.00,,2013-01-11 15:03:00,
2013-01-11 15:13:00,40.0,31.0,30.38,SSW,212,4.0,8.0,71,0.00,,,0.00,,2013-01-11 15:13:00,
2013-01-11 15:23:00,40.0,31.0,30.38,SSW,212,4.0,8.0,71,0.00,,,0.00,,2013-01-11 15:23:00,
2013-01-11 15:33:00,41.0,32.0,30.37,SSW,207,4.0,9.0,71,0.00,,,0.00,,2013-01-11 15:33:00,
2013-01-11 15:43:00,41.0,32.0,30.37,SSW,207,4.0,9.0,71,0.00,,,0.00,,2013-01-11 15:43:00,
2013-01-11 15:52:00,41.0,32.0,30.36,SSW,207,3.0,8.0,71,0.00,,,0.00,,2013-01-11 15:52:00,
2013-01-11 16:03:00,42.0,33.0,30.35,SSE,158,5.0,7.0,70,0.00,,,0.00,,2013-01-11 16:03:00,
2013-01-11 16:12:00,42.0,33.0,30.34,SSW,193,3.0,8.0,70,0.00,,,0.00,,2013-01-11 16:12:00,
2013-01-11 16:23:00,42.0,33.0,30.34,SSW,193,3.0,8.0,70,0.00,,,0.00,,2013-01-11 16:23:00,
2013-01-11 16:33:00,43.0,34.0,30.33,SW,226,3.0,9.0,69,0.00,,,0.00,,2013-01-11 16:33:00,
2013-01-11 16:43:00,44.0,33.0,30.31,SSE,167,5.0,10.0,66,0.00,,,0.00,,2013-01-11 16:43:00,
2013-01-11 16:53:00,44.0,33.0,30.31,SSE,167,5.0,10.0,66,0.00,,,0.00,,2013-01-11 16:53:00,
2013-01-11 17:03:00,44.0,33.0,30.30,South,169,2.0,10.0,66,0.00,,,0.00,,2013-01-11 17:03:00,
2013-01-11 17:12:00,44.0,33.0,30.29,SW,222,4.0,12.0,65,0.00,,,0.00,,2013-01-11 17:12:00,
2013-01-11 17:22:00,44.0,33.0,30.29,SW,222,4.0,12.0,65,0.00,,,0.00,,2013-01-11 17:22:00,
2013-01-11 17:33:00,44.0,33.0,30.29,SW,222,4.0,12.0,65,0.00,,,0.00,,2013-01-11 17:33:00,
2013-01-11 17:43:00,44.0,33.0,30.29,SW,222,4.0,12.0,65,0.00,,,0.00,,2013-01-11 17:43:00,
2013-01-11 17:53:00,44.0,32.0,30.27,WSW,257,7.0,15.0,63,0.00,,,0.00,,2013-01-11 17:53:00,
2013-01-11 18:04:00,44.0,33.0,30.25,SW,225,6.0,14.0,64,0.00,,,0.00,,2013-01-11 18:04:00,
2013-01-11 18:13:00,44.0,33.0,30.25,SW,225,6.0,14.0,64,0.00,,,0.00,,2013-01-11 18:13:00,
2013-01-11 18:23:00,44.0,33.0,30.24,SSW,204,7.0,14.0,65,0.00,,,0.00,,2013-01-11 18:23:00,
2013-01-11 18:33:00,44.0,33.0,30.25,WSW,255,8.0,13.0,65,0.00,,,0.00,,2013-01-11 18:33:00,
2013-01-11 18:43:00,44.0,33.0,30.25,WSW,255,8.0,13.0,65,0.00,,,0.00,,2013-01-11 18:43:00,
2013-01-11 18:53:00,44.0,34.0,30.24,WSW,245,8.0,15.0,69,0.00,,,0.00,,2013-01-11 18:53:00,
2013-01-11 19:03:00,43.0,35.0,30.23,South,177,5.0,14.0,74,0.00,,,0.00,,2013-01-11 19:03:00,
2013-01-11 19:12:00,43.0,35.0,30.23,South,177,5.0,14.0,74,0.00,,,0.00,,2013-01-11 19:12:00,
2013-01-11 19:22:00,42.0,36.0,30.22,SW,224,6.0,14.0,79,0.00,,,0.00,,2013-01-11 19:22:00,
2013-01-11 19:33:00,42.0,37.0,30.22,SW,215,5.0,10.0,81,0.00,,,0.00,,2013-01-11 19:33:00,
2013-01-11 19:43:00,42.0,37.0,30.22,SW,215,5.0,10.0,81,0.00,,,0.00,,2013-01-11 19:43:00,
2013-01-11 19:53:00,42.0,37.0,30.21,South,184,3.0,9.0,81,0.00,,,0.00,,2013-01-11 19:53:00,
2013-01-11 20:03:00,42.0,37.0,30.21,South,181,4.0,6.0,82,0.00,,,0.00,,2013-01-11 20:03:00,
2013-01-11 20:12:00,42.0,37.0,30.21,South,181,4.0,6.0,82,0.00,,,0.00,,2013-01-11 20:12:00,
2013-01-11 20:22:00,42.0,38.0,30.21,South,169,3.0,7.0,84,0.00,,,0.00,,2013-01-11 20:22:00,
2013-01-11 20:33:00,41.0,37.0,30.20,SSW,197,4.0,8.0,87,0.00,,,0.00,,2013-01-11 20:33:00,
2013-01-11 20:43:00,41.0,37.0,30.20,SSW,197,4.0,8.0,87,0.00,,,0.00,,2013-01-11 20:43:00,
2013-01-11 20:52:00,41.0,38.0,30.20,South,177,4.0,8.0,90,0.00,,,0.00,,2013-01-11 20:52:00,
2013-01-11 21:03:00,41.0,39.0,30.19,South,171,4.0,9.0,92,0.02,,,0.02,,2013-01-11 21:03:00,
2013-01-11 21:12:00,40.0,38.0,30.17,SSE,160,5.0,9.0,93,0.04,,,0.04,,2013-01-11 21:12:00,
2013-01-11 21:23:00,40.0,38.0,30.17,SSE,160,5.0,9.0,93,0.04,,,0.04,,2013-01-11 21:23:00,
2013-01-11 21:33:00,40.0,38.0,30.18,SSE,167,3.0,9.0,94,0.05,,,0.05,,2013-01-11 21:33:00,
2013-01-11 21:42:00,40.0,38.0,30.18,SSE,167,3.0,9.0,94,0.05,,,0.05,,2013-01-11 21:42:00,
2013-01-11 21:52:00,40.0,38.0,30.17,SSW,210,1.0,4.0,94,0.05,,,0.05,,2013-01-11 21:52:00,
2013-01-11 22:03:00,40.0,38.0,30.17,SSW,210,1.0,4.0,94,0.05,,,0.05,,2013-01-11 22:03:00,
2013-01-11 22:12:00,41.0,40.0,30.17,SSE,165,0.0,1.0,95,0.02,,,0.06,,2013-01-11 22:12:00,
2013-01-11 22:22:00,41.0,40.0,30.17,SSE,165,0.0,1.0,95,0.02,,,0.06,,2013-01-11 22:22:00,
2013-01-11 22:33:00,41.0,40.0,30.16,SSW,201,1.0,3.0,95,0.01,,,0.06,,2013-01-11 22:33:00,
2013-01-11 22:42:00,41.0,40.0,30.16,SSW,201,1.0,3.0,95,0.01,,,0.06,,2013-01-11 22:42:00,
2013-01-11 22:52:00,40.0,39.0,30.16,SW,225,0.0,3.0,95,0.01,,,0.06,,2013-01-11 22:52:00,
2013-01-11 23:02:00,40.0,39.0,30.16,SSW,212,0.0,3.0,96,0.00,,,0.06,,2013-01-11 23:02:00,
2013-01-11 23:13:00,40.0,39.0,30.16,SW,215,0.0,2.0,96,0.00,,,0.06,,2013-01-11 23:13:00,
2013-01-11 23:23:00,40.0,39.0,30.16,SW,215,0.0,2.0,96,0.00,,,0.06,,2013-01-11 23:23:00,
2013-01-11 23:33:00,41.0,40.0,30.15,SSW,203,0.0,2.0,96,0.00,,,0.06,,2013-01-11 23:33:00,
2013-01-11 23:43:00,41.0,40.0,30.15,SSW,203,0.0,2.0,96,0.00,,,0.06,,2013-01-11 23:43:00,
2013-01-11 23:53:00,41.0,40.0,30.15,SSW,193,0.0,2.0,96,0.00,,,0.06,,2013-01-11 23:53:00,